Francistown, Botswana

8:38 AM CAT on November 18, 2017 (GMT +0200)
Francistown

Weather History for FBFT - October, 2011

Change the Weather History Date:

Sunday, October 2, 2011

  Actual Average Record
Temperature  
Mean Temperature 70 °F -  
Max Temperature 81 °F 87 °F 102 °F (2008)
Min Temperature 60 °F 62 °F 41 °F (2013)
Cooling Degree Days 6    
Growing Degree Days 20 (Base 50)    
Moisture  
Dew Point 58 °F    
Average Humidity 66    
Maximum Humidity 94    
Minimum Humidity 32    
Precipitation  
Precipitation 0.00 in - - ()
Sea Level Pressure  
Sea Level Pressure 30.02 in    
Wind  
Wind Speed 7 mph ()    
Max Wind Speed 14 mph    
Max Gust Speed -    
Visibility 6.2 miles    
Events Rain , Thunderstorm    
Averages and records for this station are not official NWS values.
T = Trace of Precipitation, MM = Missing Value Source: Averaged Metar Reports

Daily Weather History Graph

Daily Weather History Graph

Search for Another Location

Airport or City:

Trip Planner

Search our weather history database for the weather conditions in past years. The results will help you decide how hot, cold, wet, or windy it might be!

Date:

Astronomy

Oct. 02, 2011 Rise Set
Actual Time 5:50 AM CAT 6:08 PM CAT
Civil Twilight 5:28 AM CAT 6:30 PM CAT
Nautical Twilight 5:02 AM CAT 6:56 PM CAT
Astronomical Twilight 4:36 AM CAT 7:23 PM CAT
Moon 9:48 AM CAT (10/2) 11:34 PM CAT (10/2)
Length of Visible Light 13h 02m
Length of Day
12h 17m
Waxing Crescent, 32% of the Moon is Illuminated
Oct 2
Waxing Crescent
Oct 4
First Quarter
Oct 12
Full
Oct 20
Last Quarter
Oct 26
New

Hourly Weather History & Observations

Time (CAT) Temp. Heat Index Dew Point Humidity Pressure Visibility Wind Dir Wind Speed Gust Speed Precip Events Conditions
12:00 AM 62.6 °F - 59.0 °F 88% 30.06 in 6.2 mi North 12.7 mph - N/A Thunderstorm Thunderstorm
1:00 AM 60.8 °F - 59.0 °F 94% 30.04 in 6.2 mi NNE 8.1 mph - N/A Thunderstorm Thunderstorm
2:00 AM 64 °F - 56 °F 69%  in 6 mi NE 13.8 mph - - Thunderstorm Thunderstorm
2:00 AM 64.4 °F - 57.2 °F 77% 29.95 in 6.2 mi NE 13.8 mph - N/A Thunderstorm Thunderstorm
3:00 AM 66.2 °F - 57.2 °F 73% 29.98 in 6.2 mi NNE 5.8 mph - N/A   Scattered Clouds
4:00 AM 64.4 °F - 57.2 °F 77% 29.98 in 6.2 mi North 4.6 mph - N/A   Scattered Clouds
5:00 AM 66.2 °F - 55.4 °F 68% 30.01 in 6.2 mi NNW 6.9 mph - N/A   Scattered Clouds
6:00 AM 66.2 °F - 59.0 °F 78% 30.01 in 6.2 mi WSW 4.6 mph - N/A   Scattered Clouds
7:00 AM 66.2 °F - 55.4 °F 68% 30.04 in 6.2 mi NNE 3.5 mph - N/A   Mostly Cloudy
8:00 AM 66.2 °F - 57.2 °F 73% 30.06 in 6.2 mi Variable 2.3 mph - N/A   Mostly Cloudy
9:00 AM 71.6 °F - 55.4 °F 57% 30.09 in 6.2 mi South 8.1 mph - N/A   Mostly Cloudy
10:00 AM 77.0 °F - 55.4 °F 47% 30.09 in - SSE 10.4 mph - N/A   Clear
11:00 AM 78.8 °F - 53.6 °F 42% 30.06 in - SSE 6.9 mph - N/A   Clear
12:00 PM 80.6 °F 80.5 °F 55.4 °F 42% 30.04 in - SSE 4.6 mph - N/A   Clear
1:00 PM 82.4 °F 81.7 °F 55.4 °F 39% 30.01 in 6.2 mi South 11.5 mph - N/A   Mostly Cloudy
2:00 PM 80 °F - 56 °F 32%  in 6 mi South 11.5 mph - - Thunderstorm Thunderstorm
2:00 PM 80.6 °F 80.5 °F 55.4 °F 42% 30.01 in 6.2 mi South 11.5 mph - N/A Thunderstorm Thunderstorm
3:00 PM 69.8 °F - 64.4 °F 83% 30.01 in 6.2 mi SSW 10.4 mph - N/A Rain , Thunderstorm Light Thunderstorms and Rain
4:00 PM 73.4 °F - 62.6 °F 69% 30.01 in 6.2 mi SSE 9.2 mph - N/A Thunderstorm Thunderstorm
5:00 PM 73.4 °F - 59.0 °F 61% 29.98 in 6.2 mi East 11.5 mph - N/A   Mostly Cloudy
6:00 PM 69.8 °F - 59.0 °F 68% 30.01 in 6.2 mi East 4.6 mph - N/A   Mostly Cloudy
7:00 PM 69.8 °F - 59.0 °F 68% 30.01 in 6.2 mi East 4.6 mph - N/A   Mostly Cloudy
8:00 PM 68 °F - 60 °F 68%  in 6 mi NE 3.5 mph - -   Mostly Cloudy
8:00 PM 68.0 °F - 59.0 °F 73% 30.04 in - NNE 3.5 mph - N/A   Clear
9:00 PM 68.0 °F - 59.0 °F 73% 30.04 in - NNE 3.5 mph - N/A   Clear
10:00 PM 66.2 °F - 60.8 °F 83% 30.04 in - NE 3.5 mph - N/A   Clear
11:00 PM 66.2 °F - 60.8 °F 83% 30.01 in 6.2 mi Variable 2.3 mph - N/A   Partly Cloudy